• In Belarus
  • List of Countries
  • For 7 days
  • Water Temperature
  • Satellite Maps
  • Weather Map
  • Weather Widgets
  • user-avatar
    Login

    Hourly Weather Artashat

    Today, 17 December, Sunday

    Time Temperature Precipitation Wind Pressure Humidity
    00:00 -1°C° 0 mm 1 mps 602 mmHg 41%
    01:00 -2°C° 0 mm 1 mps 602 mmHg 41%
    02:00 -2°C° 0 mm 1 mps 602 mmHg 41%
    03:00 -2°C° 0 mm 1 mps 602 mmHg 41%
    04:00 -2°C° 0 mm 1 mps 602 mmHg 41%
    05:00 -2°C° 0 mm 1 mps 602 mmHg 41%
    06:00 -3°C° 0 mm 1 mps 602 mmHg 41%
    07:00 -2°C° 0 mm 1 mps 602 mmHg 40%
    08:00 -1°C° 0 mm 1 mps 603 mmHg 38%
    09:00 0°C° 0 mm 1 mps 603 mmHg 37%
    10:00 +1°C° 0 mm 1 mps 603 mmHg 36%
    11:00 +3°C° 0 mm 1 mps 603 mmHg 34%
    12:00 +4°C° 0 mm 1 mps 603 mmHg 33%
    13:00 +4°C° 0 mm 1 mps 603 mmHg 35%
    14:00 +4°C° 0 mm 1 mps 603 mmHg 36%
    15:00 +4°C° 0 mm 1 mps 603 mmHg 38%
    16:00 +2°C° 0 mm 1 mps 603 mmHg 39%
    17:00 +1°C° 0 mm 1 mps 602 mmHg 41%
    18:00 -1°C° 0 mm 1 mps 602 mmHg 43%
    19:00 -1°C° 0 mm 1 mps 602 mmHg 43%
    20:00 -1°C° 0 mm 1 mps 602 mmHg 43%
    21:00 -1°C° 0 mm 1 mps 602 mmHg 43%
    22:00 -2°C° 0 mm 1 mps 602 mmHg 43%
    23:00 -2°C° 0 mm 1 mps 602 mmHg 43%

    Tomorrow, 18 December, Monday

    Time Temperature Precipitation Wind Pressure Humidity
    00:00 -2°C° 0 mm 1 mps 602 mmHg 43%
    01:00 -2°C° 0 mm 1 mps 602 mmHg 43%
    02:00 -2°C° 0 mm 1 mps 602 mmHg 44%
    03:00 -2°C° 0 mm 1 mps 602 mmHg 44%
    04:00 -3°C° 0 mm 1 mps 602 mmHg 46%
    05:00 -3°C° 0 mm 1 mps 601 mmHg 47%
    06:00 -3°C° 0 mm 1 mps 601 mmHg 48%
    07:00 -2°C° 0 mm 1 mps 602 mmHg 47%
    08:00 -1°C° 0 mm 1 mps 603 mmHg 47%
    09:00 0°C° 0 mm 1 mps 603 mmHg 47%
    10:00 +1°C° 0 mm 1 mps 603 mmHg 46%
    11:00 +3°C° 0 mm 1 mps 603 mmHg 45%
    12:00 +4°C° 0 mm 1 mps 603 mmHg 44%
    13:00 +4°C° 0 mm 1 mps 603 mmHg 46%
    14:00 +4°C° 0 mm 1 mps 603 mmHg 47%
    15:00 +4°C° 0 mm 1 mps 603 mmHg 49%
    16:00 +3°C° 0 mm 1 mps 603 mmHg 52%
    17:00 -1°C° 0 mm 2 mps 602 mmHg 55%
    18:00 -2°C° 0 mm 2 mps 602 mmHg 58%
    19:00 -2°C° 0 mm 2 mps 602 mmHg 60%
    20:00 -3°C° 0 mm 2 mps 602 mmHg 61%
    21:00 -3°C° 0 mm 2 mps 602 mmHg 62%
    22:00 -3°C° 0 mm 2 mps 602 mmHg 63%
    23:00 -3°C° 0 mm 2 mps 602 mmHg 64%

    Day after tomorrow, 19 December, Tuesday

    Time Temperature Precipitation Wind Pressure Humidity
    00:00 -3°C° 0 mm 2 mps 602 mmHg 65%
    01:00 -3°C° 0 mm 2 mps 602 mmHg 65%
    02:00 -3°C° 0 mm 2 mps 602 mmHg 66%
    03:00 -4°C° 0 mm 2 mps 602 mmHg 67%
    04:00 -4°C° 0 mm 2 mps 602 mmHg 68%
    05:00 -4°C° 0 mm 2 mps 602 mmHg 68%
    06:00 -4°C° 0 mm 2 mps 602 mmHg 69%
    07:00 -3°C° 0 mm 2 mps 602 mmHg 66%
    08:00 -2°C° 0 mm 2 mps 603 mmHg 63%
    09:00 -1°C° 0 mm 2 mps 603 mmHg 60%
    10:00 +1°C° 0 mm 2 mps 604 mmHg 57%
    11:00 +2°C° 0 mm 2 mps 604 mmHg 54%
    12:00 +4°C° 0 mm 2 mps 604 mmHg 51%
    13:00 +4°C° 0 mm 2 mps 604 mmHg 51%
    14:00 +4°C° 0 mm 2 mps 604 mmHg 52%
    15:00 +4°C° 0 mm 2 mps 604 mmHg 52%
    16:00 +3°C° 0 mm 2 mps 603 mmHg 55%
    17:00 +2°C° 0 mm 2 mps 603 mmHg 58%
    18:00 +1°C° 0 mm 2 mps 603 mmHg 62%
    19:00 -1°C° 0 mm 2 mps 603 mmHg 63%
    20:00 -1°C° 0 mm 2 mps 603 mmHg 64%
    21:00 -1°C° 0 mm 2 mps 603 mmHg 66%
    22:00 -1°C° 0 mm 2 mps 603 mmHg 67%
    23:00 -2°C° 0 mm 2 mps 603 mmHg 68%

    20 December, Wednesday

    Time Temperature Precipitation Wind Pressure Humidity
    00:00 -2°C° 0 mm 2 mps 603 mmHg 69%
    01:00 -2°C° 0 mm 2 mps 603 mmHg 71%
    02:00 -2°C° 0 mm 2 mps 603 mmHg 72%
    03:00 -2°C° 0 mm 2 mps 603 mmHg 73%
    04:00 -2°C° 0 mm 2 mps 603 mmHg 73%
    05:00 -2°C° 0 mm 2 mps 603 mmHg 74%
    06:00 -2°C° 0 mm 2 mps 603 mmHg 74%
    07:00 -1°C° 0 mm 2 mps 603 mmHg 71%
    08:00 -1°C° 0 mm 2 mps 604 mmHg 68%
    09:00 +1°C° 0 mm 2 mps 605 mmHg 65%
    10:00 +2°C° 0.1 mm 2 mps 605 mmHg 65%
    11:00 +3°C° 0.1 mm 2 mps 604 mmHg 64%
    12:00 +3°C° 0.1 mm 2 mps 604 mmHg 63%
    13:00 +3°C° 0.1 mm 2 mps 604 mmHg 64%
    14:00 +3°C° 0.1 mm 2 mps 604 mmHg 65%
    15:00 +3°C° 0.1 mm 2 mps 604 mmHg 66%
    16:00 +3°C° 0.1 mm 2 mps 603 mmHg 68%
    17:00 +2°C° 0.1 mm 2 mps 603 mmHg 70%
    18:00 +1°C° 0.1 mm 2 mps 603 mmHg 72%
    19:00 +1°C° 0.2 mm 2 mps 603 mmHg 72%
    20:00 +2°C° 0.2 mm 2 mps 604 mmHg 73%
    21:00 +2°C° 0.2 mm 2 mps 604 mmHg 73%
    22:00 +1°C° 0.1 mm 2 mps 603 mmHg 74%
    23:00 +1°C° 0.1 mm 2 mps 603 mmHg 75%

    21 December, Thursday

    Time Temperature Precipitation Wind Pressure Humidity
    00:00 +1°C° 0.1 mm 2 mps 603 mmHg 76%
    01:00 +1°C° 0 mm 2 mps 603 mmHg 76%
    02:00 -1°C° 0 mm 2 mps 603 mmHg 76%
    03:00 -1°C° 0 mm 2 mps 603 mmHg 76%
    04:00 -1°C° 0 mm 2 mps 602 mmHg 76%
    05:00 -1°C° 0 mm 2 mps 602 mmHg 76%
    06:00 -1°C° 0 mm 2 mps 602 mmHg 76%
    07:00 +1°C° 0 mm 2 mps 602 mmHg 73%
    08:00 +1°C° 0 mm 2 mps 603 mmHg 70%
    09:00 +2°C° 0 mm 2 mps 603 mmHg 68%
    10:00 +3°C° 0 mm 2 mps 603 mmHg 65%
    11:00 +4°C° 0 mm 2 mps 603 mmHg 62%
    12:00 +5°C° 0 mm 2 mps 603 mmHg 59%
    13:00 +4°C° 0 mm 3 mps 602 mmHg 59%
    14:00 +5°C° 0 mm 3 mps 602 mmHg 60%
    15:00 +5°C° 0 mm 3 mps 601 mmHg 60%
    16:00 +3°C° 0 mm 3 mps 601 mmHg 64%
    17:00 +3°C° 0 mm 2 mps 600 mmHg 68%
    18:00 +2°C° 0 mm 2 mps 600 mmHg 72%
    19:00 +2°C° 0 mm 2 mps 599 mmHg 72%
    20:00 +2°C° 0 mm 2 mps 599 mmHg 72%
    21:00 +2°C° 0 mm 2 mps 599 mmHg 72%
    22:00 +2°C° 0 mm 2 mps 599 mmHg 71%
    23:00 +2°C° 0 mm 2 mps 598 mmHg 71%

    22 December, Friday

    Time Temperature Precipitation Wind Pressure Humidity
    00:00 +1°C° 0 mm 3 mps 598 mmHg 71%
    01:00 +1°C° 0 mm 2 mps 597 mmHg 72%
    02:00 +1°C° 0 mm 2 mps 597 mmHg 73%
    03:00 -1°C° 0 mm 2 mps 596 mmHg 74%
    04:00 -1°C° 0.4 mm 2 mps 596 mmHg 75%
    05:00 -1°C° 0.4 mm 2 mps 595 mmHg 76%
    06:00 -1°C° 0.4 mm 2 mps 595 mmHg 76%
    07:00 +1°C° 0.3 mm 2 mps 595 mmHg 76%
    08:00 +1°C° 0.3 mm 2 mps 595 mmHg 76%
    09:00 +1°C° 0.3 mm 2 mps 595 mmHg 76%
    10:00 +1°C° 0.7 mm 2 mps 594 mmHg 77%
    11:00 +1°C° 0.7 mm 2 mps 594 mmHg 77%
    12:00 +1°C° 0.7 mm 2 mps 593 mmHg 78%
    13:00 +1°C° 0.9 mm 2 mps 593 mmHg 79%
    14:00 +1°C° 0.9 mm 2 mps 592 mmHg 79%
    15:00 +1°C° 0.9 mm 2 mps 592 mmHg 80%
    16:00 +1°C° 0.9 mm 2 mps 592 mmHg 80%
    17:00 -1°C° 0.9 mm 2 mps 592 mmHg 81%
    18:00 -1°C° 0.9 mm 3 mps 591 mmHg 81%
    19:00 -2°C° 0.8 mm 3 mps 591 mmHg 82%
    20:00 -4°C° 0.8 mm 4 mps 591 mmHg 82%
    21:00 -5°C° 0.8 mm 4 mps 591 mmHg 83%
    22:00 -7°C° 0.6 mm 4 mps 591 mmHg 82%
    23:00 -7°C° 0.6 mm 5 mps 591 mmHg 81%
    Show more